Flag for U.S.A. Weather past 2 weeks in Winston-Salem, North Carolina, U.S.A.

Now
48 °F

Overcast.


Feels Like: 48 °F
Forecast: 44 / 65 °F
Wind: No wind

Location: Smith Reynolds Airport

Current Time: Apr 27, 2015 at 2:00:36 AM

Latest Report: Apr 27, 2015 at 12:54 AM


Visibility: 10 mi

Pressure: 29.79 "Hg

Humidity: 89%

Dew point: 45 °F

Location of Winston-SalemLocation

Historic Weather in Winston-Salem — Graph

°F

Winston-Salem temperature yesterday

Maximum temperature yesterday: 54 °F (at 5:54 PM)
Minimum temperature yesterday: 43 °F (at 3:54 AM)
Average temperature yesterday: 47 °F

Past Weeks' High & Low Weather Summary

 TemperatureHumidityPressure
High79 °F (Apr 18, 2:54 PM)100% (Apr 18, 6:54 AM)30.40 "Hg (Apr 18, 6:54 AM)
Low41 °F (Apr 24, 3:54 AM)15% (Apr 23, 3:54 PM)29.59 "Hg (Apr 20, 6:54 PM)
Average59 °F68%29.98 "Hg
* Reported Apr 12 12:54 AM — Apr 27 12:54 AM, Winston-Salem, Weather by CustomWeather, © 2015

Note: Actual official high and low records may vary slightly from our data, if they occured in-between our weather recording intervals... More about our weather records

Advertising

Winston-Salem weather history for previous 24 hours

 ConditionsComfort  
Time TempWeatherWind HumidityBarometerVisibility
12:54 AM
Mon, Apr 27
48 °FOvercast.No wind89%29.79 "Hg10 mi
11:54 PM
Sun, Apr 26
47 °FOvercast.No wind93%29.80 "Hg10 mi
10:54 PM47 °FPassing clouds.No wind90%29.79 "Hg10 mi
9:54 PM49 °FMostly cloudy.5 mph86%29.78 "Hg10 mi
8:54 PM50 °FOvercast.3 mph80%29.78 "Hg10 mi
7:54 PM50 °FPassing clouds.5 mph80%29.76 "Hg10 mi
6:54 PM53 °FScattered clouds.8 mph72%29.74 "Hg10 mi
5:54 PM54 °FCloudy.5 mph72%29.72 "Hg10 mi
4:54 PM53 °FMostly cloudy.9 mph74%29.73 "Hg10 mi
3:54 PM52 °FMostly cloudy.5 mph75%29.73 "Hg10 mi
3:01 PM50 °FOvercast.7 mph80%29.74 "Hg10 mi
1:54 PM49 °FOvercast.8 mph84%29.74 "Hg10 mi
12:54 PM47 °FMostly cloudy.9 mph86%29.73 "Hg10 mi
11:54 AM46 °FMostly cloudy.10 mph89%29.73 "Hg10 mi
10:54 AM45 °FLight rain. Fog.8 mph90%29.73 "Hg4 mi
9:54 AM44 °FLow clouds.7 mph89%29.70 "Hg10 mi
8:54 AM43 °FFog.8 mph97%29.69 "Hg3 mi
7:54 AM43 °FFog.10 mph93%29.65 "Hg2 mi
7:03 AM43 °FFog.8 mph93%29.65 "Hg2 mi
6:54 AM43 °FFog.3 mph93%29.65 "Hg3 mi
5:54 AM43 °FFog.5 mph93%29.62 "Hg4 mi
4:54 AM43 °FFog.5 mph93%29.60 "Hg6 mi
3:54 AM43 °FFog.7 mph97%29.61 "Hg5 mi
2:54 AM44 °FFog.7 mph93%29.62 "Hg4 mi
Weather by CustomWeather, © 2015

See weather overviewHow to use our weather pages